Theta_e
317 317 317 318 319 320 322 324 325 325 323 322 321 321 321 321 322 323 325 325 326 327 330 331 330 330 328 327 329 332 333 332 334 336 339 338 336 337 338 335 335 335 332 328 325 324 322 319 318 319 317 313 312 311 310 310 314 323 328 329 330 330 330 329 329 327 323 323 327 327 327 326 325 326 329 327 327 327 328 330 324 314 320 324 322 323 320 318 316 314 316 314 312 312 314 316 316
317 316 317 318 320 321 323 324 324 324 321 319 319 321 322 320 321 320 322 324 326 327 330 330 328 328 326 326 327 330 334 334 336 338 337 336 337 338 336 333 333 335 332 328 326 324 322 319 318 318 317 313 312 312 311 311 313 322 327 328 329 330 331 330 330 327 323 323 325 325 324 326 328 330 330 330 329 328 329 329 326 317 319 323 324 327 325 325 322 316 316 316 316 313 311 312 312
316 316 318 320 321 322 323 324 323 322 320 318 319 321 322 320 321 321 323 324 325 328 329 327 326 326 324 325 327 331 334 335 336 336 335 336 337 336 336 334 334 335 333 329 326 324 323 320 318 318 316 313 312 312 312 312 313 318 324 328 329 330 331 330 330 326 323 323 324 323 323 326 327 329 330 329 327 326 327 324 324 323 321 320 321 324 325 326 324 320 318 317 317 315 314 314 315
316 316 320 322 323 323 324 325 323 321 319 318 319 321 321 322 324 324 325 324 326 329 328 326 325 327 327 325 329 334 336 335 336 336 335 336 335 335 337 335 335 335 334 331 326 323 323 321 319 318 316 313 312 313 313 312 311 314 322 327 328 330 330 329 329 326 323 323 322 321 323 325 327 327 326 326 324 325 323 321 325 326 326 323 321 323 326 324 323 321 317 316 317 316 317 317 319
315 316 322 325 326 326 324 325 324 322 320 319 318 320 322 324 327 325 325 325 327 329 326 326 325 325 327 329 332 334 336 336 334 334 335 336 333 334 336 335 335 335 335 333 326 323 324 322 319 318 317 315 313 313 313 313 311 312 320 326 328 329 330 329 329 326 324 323 318 316 319 322 325 324 323 322 321 321 320 323 326 326 327 323 319 322 324 321 322 322 318 317 318 318 319 320 321
315 317 322 325 326 325 324 324 324 323 321 320 319 319 324 325 326 325 326 326 327 328 326 327 325 324 328 331 333 334 336 336 334 335 336 335 333 333 335 334 335 336 336 333 327 324 324 323 320 318 319 317 315 313 313 314 312 312 318 323 326 328 328 329 329 326 324 323 318 314 315 317 319 321 321 319 316 316 318 322 324 324 323 319 319 323 324 322 322 322 320 319 319 320 320 321 322
318 320 322 323 324 323 326 324 323 323 320 321 320 320 324 325 325 325 325 325 325 326 327 328 325 327 329 328 332 336 337 335 335 336 335 334 331 332 334 334 336 336 336 332 325 323 324 324 321 319 319 319 317 315 314 315 314 312 315 320 323 326 328 329 328 326 322 321 318 314 312 312 315 320 322 320 316 315 315 317 319 320 318 319 323 324 324 323 321 321 320 319 319 320 321 322 322
319 323 323 324 325 324 325 324 323 322 319 320 321 322 324 324 324 324 324 324 323 324 326 327 325 326 327 327 331 335 338 337 336 335 334 332 330 331 334 335 336 336 336 331 325 323 324 325 323 320 319 320 320 318 317 316 315 314 314 318 321 324 326 327 327 325 321 318 315 311 310 310 312 318 321 320 319 316 316 318 318 319 318 319 322 322 322 321 318 319 318 318 319 320 321 322 322
321 324 323 324 326 324 323 323 323 321 319 319 320 323 324 324 323 324 323 323 323 323 325 325 325 325 327 331 332 333 338 338 335 335 333 330 329 331 334 335 336 336 335 332 327 324 324 325 325 322 320 320 320 320 319 317 316 315 315 316 318 321 323 325 324 323 320 315 312 309 309 309 310 314 317 318 319 318 319 320 320 320 320 319 319 320 321 319 317 317 317 318 319 320 321 321 322
321 324 323 324 325 324 322 322 323 320 319 319 320 323 324 323 323 323 322 322 322 323 323 324 324 324 328 332 333 333 336 337 334 334 332 328 327 330 334 335 335 336 333 333 329 324 324 325 325 325 322 321 320 321 321 320 318 317 316 316 316 316 318 321 321 320 317 314 311 309 308 308 308 311 313 316 318 318 318 318 319 320 321 321 318 317 318 317 317 317 318 318 318 319 320 321 322
322 323 322 324 323 322 322 321 322 320 319 319 319 321 323 323 322 322 322 322 321 323 323 323 323 323 330 334 335 334 333 336 334 331 330 327 326 329 334 334 335 336 334 334 330 325 325 324 325 326 325 323 322 321 321 321 320 320 319 317 316 315 315 316 317 315 313 311 310 308 307 307 307 308 310 312 314 314 315 316 317 318 319 319 317 316 317 318 318 318 318 318 318 319 320 320 322
325 324 323 324 323 323 323 322 322 320 319 319 319 320 322 323 322 322 321 321 322 324 324 322 323 320 329 334 335 334 332 334 333 329 329 327 326 331 334 333 335 335 334 334 330 326 326 325 325 325 326 325 325 323 322 322 321 321 321 319 318 317 316 314 313 312 311 309 308 307 306 306 307 308 308 310 312 314 314 315 317 317 318 317 317 318 318 318 318 318 318 318 318 318 319 320 321
326 325 324 323 323 324 324 323 322 321 320 319 319 319 322 323 322 322 321 321 322 324 323 321 322 320 329 335 335 334 333 333 334 329 327 327 328 332 334 333 335 334 334 334 331 328 326 326 325 325 326 326 326 325 324 323 322 321 321 321 320 318 317 317 315 311 309 308 308 307 306 306 306 307 308 309 312 314 314 315 317 317 318 317 317 317 318 318 318 318 318 318 318 318 318 319 321
324 324 324 324 324 324 324 323 322 321 321 319 319 319 321 323 323 322 321 321 322 323 322 321 321 322 329 334 334 333 334 335 334 329 328 327 328 333 334 333 335 333 334 335 333 330 327 327 327 325 325 326 326 326 326 325 324 323 321 321 321 320 320 319 318 314 311 309 308 307 306 306 306 307 307 309 312 313 314 315 317 317 318 318 317 317 317 318 317 318 317 317 317 317 318 319 321
322 323 326 326 325 323 324 324 322 322 320 320 319 320 321 321 322 321 320 320 321 322 321 321 320 321 325 331 334 333 334 335 334 330 328 327 328 332 334 333 335 333 332 335 335 332 329 328 329 327 326 328 327 326 326 326 326 325 323 322 321 321 321 321 321 319 316 312 309 308 307 307 306 307 307 308 311 313 314 315 316 317 318 318 318 317 317 317 317 317 317 317 317 317 317 318 320
321 322 326 326 324 324 324 324 323 322 320 320 319 320 320 320 321 320 319 320 320 321 321 320 320 323 328 331 332 332 334 335 333 329 327 329 329 331 334 333 333 333 332 335 335 334 332 330 332 330 327 330 331 328 327 326 326 326 325 324 322 322 322 322 321 321 320 316 313 309 307 307 306 306 307 307 310 313 315 315 316 317 318 319 319 318 318 317 317 317 316 316 317 317 317 318 320
320 322 326 324 324 324 323 323 322 321 320 319 319 320 320 319 320 318 318 320 319 321 321 320 319 322 331 334 332 331 333 334 332 329 328 330 330 331 333 332 332 333 332 334 335 334 334 332 334 333 330 332 333 331 330 328 326 325 326 326 325 323 321 322 322 322 321 319 317 313 309 308 307 307 307 307 308 311 314 315 316 317 318 318 319 319 319 318 318 318 317 316 317 317 317 318 319
320 323 325 323 324 323 322 322 321 321 320 319 319 320 320 319 319 318 318 319 319 320 321 321 320 320 328 335 335 331 331 332 331 329 329 330 330 330 331 332 332 333 332 333 333 334 334 333 335 335 333 333 334 333 332 331 329 326 326 326 326 325 323 322 321 322 322 321 320 316 313 310 308 307 307 307 308 309 313 315 315 316 318 318 319 319 319 319 319 319 318 317 317 317 317 317 318
320 324 324 322 323 320 319 319 318 320 320 318 319 320 320 319 318 318 318 319 318 319 320 321 320 320 326 336 336 332 331 330 329 329 328 329 329 328 329 332 333 333 332 332 332 333 334 333 334 335 334 334 334 334 332 332 332 329 327 325 326 326 325 324 322 322 322 322 322 320 318 315 311 309 308 308 308 309 311 314 315 315 317 317 318 318 319 319 319 319 319 318 318 317 317 317 318
318 322 323 323 321 318 317 316 317 318 319 318 319 320 320 319 318 318 317 318 318 318 319 320 321 320 323 333 335 332 331 329 328 329 328 328 329 328 328 330 332 333 332 331 332 332 332 333 334 335 334 334 334 334 333 332 333 332 329 326 326 326 326 326 324 323 322 322 322 321 320 318 315 313 311 310 310 310 311 313 314 315 316 316 317 318 318 319 319 319 319 319 319 319 318 319 318
318 320 322 321 318 317 317 315 316 318 318 319 319 319 319 319 318 318 318 318 318 317 318 318 321 320 319 328 333 332 330 328 328 330 329 329 330 329 329 329 330 332 332 331 332 332 332 332 332 334 334 334 333 333 333 333 333 332 331 328 327 326 326 326 326 325 324 323 322 322 322 321 319 316 314 313 313 312 312 314 315 315 316 317 317 317 318 318 318 319 319 319 319 319 320 320 319
318 319 319 317 317 317 315 315 315 317 318 319 318 319 319 318 318 317 318 318 318 317 318 318 319 321 318 322 329 330 328 325 326 329 330 330 331 331 332 332 330 331 332 331 332 332 333 332 331 332 333 333 333 333 333 332 333 332 330 329 328 328 327 326 326 326 326 325 323 323 323 323 322 320 318 317 316 315 313 314 316 316 316 317 317 318 317 318 318 319 319 319 319 320 321 321 320
318 319 318 316 317 315 315 314 315 317 318 319 318 319 318 318 317 318 318 317 318 317 318 319 318 320 319 317 321 324 324 323 323 326 328 329 331 332 334 334 332 332 332 332 331 332 333 332 331 331 332 331 332 333 333 332 333 333 332 330 329 330 329 328 327 327 327 326 325 324 324 324 323 323 321 319 318 318 317 316 317 317 317 317 318 318 318 318 318 319 319 319 320 321 321 321 321
317 318 317 315 315 314 314 314 315 316 317 318 318 318 318 317 317 317 318 317 317 317 318 319 318 319 320 318 316 317 317 318 321 324 327 331 331 333 335 334 334 333 333 332 331 332 333 333 332 331 331 331 331 332 333 333 333 333 332 331 330 330 330 330 329 328 328 327 326 326 326 325 324 324 323 322 320 319 318 318 319 319 319 318 318 319 319 319 319 319 320 320 321 321 321 322 322
317 317 317 315 314 314 313 314 314 315 315 316 318 318 317 317 317 317 318 317 316 316 317 318 320 320 320 319 315 315 315 316 320 323 328 332 333 334 335 335 335 334 334 333 331 333 334 332 332 331 330 330 330 330 332 332 332 332 331 331 330 330 330 330 330 330 329 328 327 327 326 326 326 325 325 324 322 321 320 319 319 319 319 319 319 320 320 319 320 320 320 321 321 321 322 322 322
317 317 316 315 314 313 313 313 313 314 314 315 317 317 316 315 316 316 317 317 317 316 315 317 321 323 321 319 317 315 316 316 318 320 325 332 334 335 335 335 335 334 334 333 331 332 334 332 331 331 330 330 330 330 330 331 331 331 331 331 330 330 330 330 330 330 330 330 329 328 327 326 326 326 326 326 325 324 322 321 320 320 320 320 320 320 320 320 320 320 321 321 321 322 323 323 323
317 317 315 314 313 313 314 314 313 313 314 314 316 316 315 315 315 316 316 316 317 316 315 315 318 321 322 320 317 316 316 316 316 319 323 330 334 335 335 335 335 334 334 333 329 330 333 332 329 330 329 330 331 331 330 331 331 331 330 331 330 329 329 330 330 329 330 330 329 329 329 327 326 326 326 326 326 326 325 324 323 323 322 321 321 321 321 321 320 321 321 322 322 322 323 323 323
316 316 315 314 314 314 314 314 313 314 314 314 315 316 314 314 315 315 316 316 316 316 315 314 314 318 322 321 317 316 315 316 316 317 320 324 328 331 333 334 333 335 334 333 330 328 330 330 328 328 329 329 330 330 331 330 330 331 330 330 330 328 328 328 329 329 328 329 328 329 329 329 328 327 327 326 326 326 326 327 326 325 325 324 323 323 323 322 321 322 322 323 323 323 323 323 322
316 316 316 315 314 314 314 314 313 314 314 314 315 316 315 315 315 315 315 317 316 316 316 315 315 316 320 322 321 319 316 317 318 317 318 318 321 324 326 327 328 331 333 333 332 329 328 327 325 325 326 327 327 329 330 329 329 330 328 329 329 327 327 326 326 327 327 328 327 327 327 328 327 326 327 327 327 326 326 326 326 326 326 326 325 324 324 323 323 323 323 324 324 324 323 323 322
315 315 316 316 315 315 315 315 314 314 314 314 315 317 318 316 315 315 315 316 316 316 316 315 316 316 318 321 323 322 320 320 319 316 317 318 319 320 322 324 323 324 327 330 331 330 327 325 324 323 324 324 324 326 328 328 328 329 327 327 327 326 326 326 324 324 325 326 326 326 325 325 325 324 324 326 327 327 326 326 326 326 326 326 326 326 326 325 324 324 324 324 324 324 324 324 324
314 315 316 318 317 316 315 315 314 315 314 313 315 316 319 317 315 315 315 315 315 315 316 317 316 316 318 320 321 320 320 320 318 316 316 316 318 318 319 323 323 322 322 325 327 328 326 324 322 322 321 321 320 322 324 326 326 327 327 326 325 325 325 325 324 323 324 323 323 323 324 324 325 324 323 323 325 325 325 325 323 323 324 325 326 326 325 325 325 324 324 325 325 324 324 324 324
314 315 316 318 318 316 316 315 314 315 314 312 314 316 318 316 315 315 315 315 314 314 316 317 317 316 317 319 319 317 316 316 316 316 315 314 316 316 316 318 320 320 320 320 321 324 324 321 319 319 319 319 318 317 319 322 324 326 325 324 324 323 324 325 325 324 323 321 320 318 320 323 326 326 325 324 324 324 325 324 321 319 320 322 322 322 322 323 323 323 323 323 323 323 323 323 323
314 315 317 318 317 316 316 315 314 315 314 313 314 316 317 316 314 314 315 314 314 315 315 316 317 316 316 318 318 317 316 315 315 315 314 314 315 314 314 315 315 316 316 316 318 319 320 319 317 316 316 317 316 315 316 318 321 324 324 324 324 322 322 324 324 325 324 322 321 319 321 324 325 326 326 326 326 326 327 325 322 321 321 320 320 321 321 322 322 322 322 323 323 323 323 323 323
315 315 317 318 316 316 316 316 315 315 314 314 314 315 316 316 314 314 314 314 314 314 315 315 316 316 316 317 317 317 316 316 314 314 314 314 314 314 314 314 314 314 314 314 315 316 316 316 315 314 314 315 315 315 315 315 317 319 320 323 324 321 321 322 323 325 325 323 319 319 327 328 324 325 326 327 328 327 326 325 324 325 325 324 323 323 324 324 324 324 323 323 324 324 324 324 324
316 316 316 316 316 316 317 316 316 316 315 315 314 314 315 315 314 314 314 314 314 314 314 315 316 316 317 317 317 316 316 316 315 313 314 314 314 314 314 313 313 313 314 314 314 314 315 315 314 314 314 314 315 315 315 315 316 316 319 323 325 321 318 320 321 322 324 323 315 319 329 328 322 325 327 328 328 326 325 325 325 325 325 326 325 325 325 325 325 326 326 325 325 325 325 325 325
316 317 316 316 317 316 316 316 315 315 315 316 315 314 314 314 315 314 313 313 314 314 314 315 315 316 316 317 317 317 317 315 314 313 314 314 314 314 314 314 313 313 313 313 314 313 314 315 314 313 314 314 314 315 315 315 315 315 317 321 322 320 317 317 318 319 320 320 316 320 326 322 320 326 327 327 329 326 324 324 325 326 326 327 326 325 325 324 325 326 327 326 326 324 323 322 323
315 317 316 316 318 316 315 315 314 314 315 316 316 316 315 315 316 315 313 313 314 314 314 314 315 315 315 316 316 317 317 315 314 314 314 313 313 314 314 314 314 313 313 313 314 313 313 314 313 313 313 314 314 314 314 314 314 314 315 316 317 318 317 316 315 315 315 316 317 318 318 316 318 325 326 327 330 329 324 323 325 326 327 327 325 324 324 323 323 325 326 327 326 323 320 321 322
314 316 316 316 318 316 314 315 313 313 315 317 316 316 316 316 318 316 314 313 313 313 314 314 315 315 315 316 316 316 316 315 315 314 314 314 313 313 314 314 314 314 313 313 314 313 314 313 313 314 313 313 314 313 314 314 313 313 313 313 314 315 316 315 313 313 314 315 317 317 315 314 316 321 324 326 331 331 325 323 325 325 325 324 324 324 325 323 321 322 323 324 323 321 320 322 323
316 316 316 316 317 316 315 315 314 313 314 317 318 318 317 316 318 316 314 313 313 314 314 314 315 315 315 315 315 315 315 315 315 314 314 314 314 314 314 314 314 314 314 314 314 314 314 314 314 314 314 314 314 314 313 314 314 313 313 313 314 315 315 315 315 314 315 316 315 315 315 314 314 317 322 325 329 331 326 324 324 324 323 323 324 325 325 324 320 320 322 323 323 322 321 320 320
317 316 315 317 319 318 316 315 314 313 313 316 318 318 317 316 317 317 315 315 315 315 315 315 315 315 315 315 315 315 315 315 315 314 314 314 314 314 313 314 314 314 314 314 314 314 314 314 314 314 314 314 314 314 314 314 314 314 314 314 314 315 315 316 318 316 314 315 314 314 314 314 314 315 319 323 326 327 323 322 324 324 323 323 323 324 327 328 322 318 321 323 323 323 322 321 321
317 318 317 318 319 319 319 316 313 313 315 316 315 315 316 315 315 316 316 316 316 316 316 315 315 315 315 315 315 316 316 315 315 315 314 314 314 314 314 313 314 314 314 315 314 314 314 314 315 315 314 314 314 314 314 314 314 315 315 315 314 315 315 316 317 316 314 313 314 313 313 314 314 314 316 319 322 320 316 320 326 326 323 322 322 323 325 326 321 317 319 321 322 322 323 324 323
315 319 319 317 318 320 320 317 315 314 316 317 314 315 318 317 316 316 315 316 316 315 315 315 316 316 315 316 316 316 317 316 316 315 314 314 314 314 314 313 313 313 314 314 315 314 315 315 314 315 314 314 314 314 314 314 314 314 315 315 314 314 314 314 315 314 313 313 313 313 313 314 315 315 316 317 318 317 315 319 324 325 322 319 320 320 321 321 318 315 317 320 320 321 322 323 319
313 319 321 318 319 323 322 319 317 315 317 319 317 317 319 318 316 317 316 316 317 316 315 315 316 316 316 316 316 315 316 316 316 316 316 315 314 314 314 314 314 314 313 313 314 314 314 315 314 314 314 314 314 313 314 314 314 314 314 314 314 314 313 314 313 313 313 313 313 313 313 314 315 315 316 317 318 318 317 318 320 320 320 318 318 318 317 317 315 314 315 317 318 319 320 319 315
316 323 325 320 321 325 325 322 319 318 319 320 318 317 317 318 318 319 319 317 318 318 318 317 316 317 317 316 316 315 315 316 316 316 316 316 316 315 315 315 314 314 314 313 314 314 314 314 314 314 314 313 314 313 313 314 313 313 314 314 314 313 314 313 313 313 313 313 313 313 313 313 314 315 316 317 318 318 318 318 318 319 319 318 317 316 315 316 316 316 316 317 317 317 317 315 314
320 324 324 321 321 324 324 322 320 320 321 320 319 317 317 320 321 319 319 317 318 319 319 318 316 316 317 316 316 316 314 315 314 314 315 314 315 316 315 316 315 315 314 314 314 314 314 314 314 314 314 314 314 314 313 313 314 314 313 314 314 314 314 314 314 313 313 313 313 313 313 313 314 314 315 316 317 317 317 317 318 318 318 317 315 315 315 315 316 316 315 315 314 314 314 314 314
319 321 322 322 322 322 321 321 318 318 319 320 322 319 316 320 321 317 318 318 318 319 318 317 316 316 317 316 316 316 315 315 315 314 314 314 314 315 315 315 316 316 315 315 315 314 315 314 314 314 314 314 314 314 314 314 314 314 314 314 314 314 314 314 314 314 313 313 313 313 314 314 314 314 314 315 316 317 317 317 317 317 317 316 315 314 314 314 314 314 314 313 313 313 313 313 313
317 320 322 321 319 319 319 319 317 318 320 319 321 319 316 319 321 317 319 319 318 318 316 317 318 316 316 316 316 317 316 316 316 315 314 314 314 313 314 315 315 316 316 316 316 315 315 315 315 315 314 314 314 314 314 314 314 314 314 314 314 314 314 314 314 314 314 314 314 314 314 314 314 314 314 314 315 316 316 316 317 316 315 315 314 314 314 313 313 313 313 313 313 313 312 312 312
318 321 320 319 318 317 317 317 317 319 321 317 318 320 318 319 319 316 317 318 317 317 315 318 319 317 317 317 317 317 316 316 315 315 314 314 314 313 314 314 314 315 315 315 315 315 315 314 314 313 313 313 313 314 314 314 314 314 314 314 314 314 314 314 314 314 314 314 315 315 314 314 314 314 314 314 314 315 315 315 315 315 314 314 314 314 313 313 313 313 313 313 312 312 312 312 312
320 320 317 319 318 317 317 318 318 319 319 315 314 317 319 319 317 316 317 315 316 317 314 315 317 317 317 316 316 315 315 315 314 314 314 314 314 314 314 314 314 315 314 314 314 314 314 314 313 313 313 313 312 312 313 313 314 314 314 314 314 313 314 314 314 314 315 315 315 315 315 315 315 314 314 314 314 314 314 314 314 314 313 313 313 313 313 313 313 313 313 313 312 312 312 312 312
317 317 318 320 318 316 317 318 318 319 318 315 314 316 319 318 316 317 317 314 315 315 314 315 315 316 317 315 315 315 313 313 313 313 313 313 314 314 314 314 314 314 314 314 314 314 314 313 313 312 313 313 312 312 312 312 312 313 313 314 313 313 314 315 314 314 315 315 315 315 315 315 315 315 315 314 314 314 314 314 313 313 313 313 313 313 313 313 313 313 313 313 313 312 312 312 312
315 318 320 320 317 317 318 318 320 322 319 314 313 317 319 318 318 318 315 313 314 314 313 314 314 315 315 315 314 314 313 313 313 313 313 313 314 313 314 314 314 313 313 313 313 313 313 312 312 313 313 313 313 313 312 312 311 311 312 312 312 313 314 315 314 315 315 315 315 315 315 315 314 314 314 314 315 314 314 314 313 313 313 313 314 313 313 313 313 313 313 313 313 313 312 312 312
315 319 320 320 319 320 319 318 318 320 319 317 316 319 320 318 318 316 314 315 315 313 313 313 313 314 313 312 312 312 313 314 314 314 314 314 313 313 313 313 313 313 313 313 312 312 313 312 312 312 313 313 313 313 312 312 311 311 311 311 313 314 315 315 315 315 315 315 315 315 314 314 314 314 314 313 314 314 314 314 313 313 313 313 313 313 313 313 313 313 313 313 313 313 313 312 312
316 317 318 320 321 323 320 316 315 314 317 320 319 319 318 315 316 316 316 319 317 314 313 312 312 313 312 312 312 312 314 314 314 315 314 314 314 313 314 313 313 313 312 313 313 312 312 312 313 313 313 313 313 312 312 311 311 311 311 312 314 315 315 314 315 315 315 315 314 314 314 314 314 314 314 314 314 314 314 313 313 313 313 313 313 313 313 313 313 313 313 313 313 313 312 312 312
316 317 317 317 318 320 317 316 317 315 315 317 318 318 317 315 318 320 317 318 319 316 314 312 312 313 313 313 312 313 314 314 314 315 315 315 315 314 314 314 314 314 313 314 313 313 313 313 313 313 313 313 313 312 312 312 312 312 313 314 314 315 315 315 315 315 315 314 314 314 314 314 315 314 314 314 314 314 313 313 313 313 313 313 313 313 312 312 312 313 313 313 313 312 312 312 312
314 315 316 317 319 318 315 314 316 317 316 316 317 317 317 316 317 318 317 318 319 317 316 315 314 313 313 313 313 312 313 313 314 315 315 315 314 314 315 314 315 314 314 314 314 314 314 314 314 313 313 313 313 313 313 313 313 313 314 314 314 315 315 315 315 315 315 314 314 315 314 314 314 314 314 314 314 314 314 313 313 313 313 313 313 313 313 312 312 312 312 312 312 312 312 311 311
312 313 313 317 320 318 317 317 315 316 316 316 317 316 318 320 318 315 317 319 318 317 318 317 314 313 313 313 313 313 313 314 314 315 314 314 314 314 314 314 315 314 314 315 314 315 315 314 314 314 314 314 313 314 314 314 314 314 314 315 315 315 315 315 315 315 315 315 315 314 315 314 314 314 314 314 314 314 314 313 313 313 313 313 313 313 313 313 312 312 312 312 312 312 312 311 311
312 314 313 314 316 315 317 318 316 316 316 316 316 315 318 321 318 316 315 316 320 321 322 320 314 313 315 314 314 314 314 314 314 315 314 313 314 314 314 315 314 314 315 315 315 315 315 315 314 314 314 314 314 314 314 314 315 315 315 315 315 315 315 315 315 315 314 315 315 314 314 314 314 314 314 314 314 314 313 313 313 313 313 313 313 313 312 312 312 312 312 312 312 312 311 311 311
313 314 314 313 315 317 317 317 317 315 315 316 315 316 324 324 317 318 317 315 318 317 317 316 313 311 312 313 314 315 315 314 314 314 313 313 314 314 314 315 315 315 315 315 315 314 315 315 315 315 315 315 315 315 315 315 315 315 315 315 315 315 315 315 314 315 315 315 315 314 314 314 314 314 314 314 314 313 313 313 313 313 313 313 313 312 312 312 312 312 312 312 312 312 311 311 311
Wind_Speed
5 4 4 3 1 1 3 3 4 3 2 4 3 2 2 5 6 6 6 5 6 5 7 10 10 8 4 4 11 16 15 9 3 1 6 14 20 17 15 15 13 13 12 11 10 11 11 11 12 13 14 14 15 15 15 14 14 16 18 16 14 13 13 13 13 14 15 15 16 15 15 16 18 17 17 18 18 18 16 15 14 15 17 18 18 18 18 18 17 17 16 16 15 14 14 14 15
6 5 6 2 1 1 4 4 2 2 4 4 1 4 4 4 5 7 5 5 8 7 9 10 8 7 5 6 10 13 16 15 13 16 20 22 21 16 16 14 14 14 12 11 10 11 11 11 12 14 15 15 15 16 16 15 15 16 17 15 14 13 12 12 12 13 16 16 16 15 15 16 17 16 16 17 15 15 14 12 13 15 16 17 17 17 17 18 17 17 17 18 18 18 18 18 18
6 6 6 1 3 4 5 2 2 4 3 3 3 5 5 4 6 8 7 11 14 12 11 10 7 5 4 6 9 10 10 13 20 25 25 21 20 19 16 12 12 14 12 11 11 10 10 12 13 14 15 15 15 16 16 15 13 14 16 16 14 13 11 11 11 12 15 16 15 14 15 16 15 15 14 13 12 12 12 13 15 16 16 16 16 17 17 17 17 17 18 18 19 19 19 19 19
7 7 7 2 6 5 4 2 3 3 4 1 4 4 6 6 8 10 13 16 15 13 11 9 6 5 6 5 9 12 11 12 16 22 23 18 18 23 19 13 10 12 11 9 11 10 10 11 13 15 16 15 15 15 16 15 14 15 17 17 15 13 11 10 11 12 15 15 15 14 14 15 14 13 12 11 11 11 12 15 17 17 15 15 16 17 17 17 17 18 18 19 19 19 19 19 18
7 8 7 4 5 3 2 2 3 3 3 1 4 4 7 10 11 12 13 15 12 11 10 8 4 4 8 9 7 8 10 12 15 19 21 16 19 25 20 14 11 13 11 8 10 10 10 11 13 15 16 16 15 16 16 16 16 15 16 17 15 13 11 10 10 12 13 14 15 15 13 13 13 12 12 11 11 11 14 16 16 15 13 13 15 16 17 17 17 18 18 19 19 19 19 18 17
6 6 5 3 4 3 3 2 4 3 3 2 5 5 9 12 13 15 14 13 9 8 8 5 3 6 7 9 9 10 9 11 16 18 19 18 22 26 20 15 12 13 11 9 10 10 10 11 13 15 16 16 16 16 16 16 16 15 16 16 15 13 12 10 9 10 12 13 14 15 13 12 13 14 13 12 12 12 13 15 15 14 13 13 15 16 17 17 17 18 18 19 19 19 18 18 17
7 4 4 3 4 3 2 4 5 2 4 5 4 5 10 13 16 17 13 10 5 5 6 3 6 8 7 8 10 13 11 10 17 17 18 22 24 25 20 15 14 14 11 9 11 10 10 11 12 15 16 16 16 16 16 16 16 15 16 15 14 13 12 10 8 10 11 12 13 14 14 13 13 14 14 13 13 13 13 14 14 14 14 15 16 16 16 16 17 17 18 18 18 18 18 17 16
9 4 4 3 2 2 3 5 4 1 1 4 4 6 14 15 18 15 9 8 5 6 6 3 6 3 4 9 8 11 12 11 17 15 18 24 24 25 20 15 16 15 12 9 12 11 10 11 12 15 15 16 15 15 16 15 16 15 15 14 14 13 12 11 8 9 11 12 12 12 13 13 13 13 13 13 12 13 14 14 14 14 14 15 15 15 16 16 16 17 18 18 18 18 17 16 15
8 4 3 3 2 2 3 5 4 2 3 3 5 11 19 16 17 14 8 9 8 9 9 6 4 2 8 13 11 11 12 11 17 15 17 25 25 25 20 16 17 16 13 10 11 12 11 11 12 14 14 14 14 14 14 15 15 15 14 13 12 12 11 10 9 8 9 10 11 12 13 13 13 13 13 12 12 13 14 14 14 14 14 14 14 15 16 16 16 17 17 17 17 17 16 16 15
7 6 2 2 3 3 4 5 4 3 5 5 5 11 18 14 15 15 9 9 9 10 11 8 3 5 13 13 11 11 12 12 17 17 19 25 26 25 21 16 16 16 14 11 12 12 11 11 12 13 14 14 13 13 13 14 14 14 14 13 12 11 10 10 8 7 7 9 11 11 12 12 12 12 13 13 13 13 13 13 14 14 14 14 14 15 15 15 16 16 16 16 16 15 15 15 14
6 7 3 2 3 4 4 5 3 5 5 5 6 9 14 13 13 13 10 10 11 11 11 9 4 7 13 11 9 9 13 14 15 18 22 25 26 24 21 17 15 16 14 12 13 11 11 10 11 12 13 13 13 13 12 12 13 13 14 14 13 12 11 9 8 7 7 9 10 11 11 12 12 12 12 12 13 13 13 13 13 14 13 14 14 14 14 15 15 15 15 15 15 14 14 14 14
4 5 3 2 4 4 4 4 4 6 5 5 4 7 11 12 10 10 10 10 12 12 11 9 5 8 9 8 9 10 14 15 15 19 24 25 24 22 19 17 16 15 14 12 13 12 10 10 10 10 11 12 12 12 12 11 11 12 12 13 13 13 12 10 9 9 8 9 9 10 11 11 11 12 11 11 12 13 13 13 13 13 13 13 13 14 14 14 14 14 13 13 13 13 13 12 13
4 4 3 2 4 3 3 2 4 7 4 4 6 9 12 10 8 10 11 11 12 10 10 10 7 7 6 9 11 13 15 16 17 19 26 25 22 21 17 17 16 16 15 12 13 12 10 10 10 9 9 10 10 10 11 10 10 10 11 12 12 12 12 11 11 10 10 9 9 10 10 10 10 11 11 11 12 13 13 12 12 12 12 12 12 13 13 12 12 12 12 12 11 11 11 11 12
6 5 2 3 4 4 3 1 4 5 3 5 10 13 13 9 9 11 12 10 8 8 10 10 8 5 7 10 12 16 18 19 19 20 26 26 23 22 16 17 16 16 17 13 12 12 11 11 9 9 9 9 8 9 9 9 9 9 9 10 11 11 11 11 11 10 10 9 9 9 9 9 9 11 11 11 12 12 12 11 11 11 11 11 11 12 11 11 10 10 10 10 10 10 10 10 10
7 7 3 3 3 4 3 0 3 5 3 5 13 18 14 8 9 8 7 6 6 11 15 11 7 3 3 5 11 20 22 22 21 20 26 26 23 21 16 17 17 17 18 14 12 11 12 11 10 9 8 8 7 7 7 7 7 7 7 8 8 9 9 9 9 9 9 9 9 8 8 8 9 10 11 12 12 12 11 10 10 10 10 10 10 11 10 10 9 9 9 8 8 8 8 8 8
8 5 2 2 3 3 2 1 1 3 3 5 14 20 13 6 8 6 7 8 10 13 12 8 7 4 5 6 13 23 24 25 23 20 26 26 22 22 17 17 18 18 18 15 13 12 11 11 11 10 8 8 7 6 6 6 6 5 6 6 6 7 7 7 7 7 8 8 8 7 7 7 8 9 11 11 11 11 10 9 9 9 9 9 9 9 9 9 8 8 8 7 7 6 6 6 7
6 3 2 2 4 3 4 4 2 3 4 6 15 18 10 6 8 6 9 10 11 13 9 7 9 7 9 11 14 22 25 27 23 21 27 27 24 24 21 18 19 19 19 18 16 15 13 12 11 10 9 9 8 7 6 5 5 5 4 5 5 5 5 5 5 6 6 6 6 6 7 7 7 8 9 10 11 11 10 9 8 8 7 7 8 7 7 7 7 7 7 6 5 5 4 4 5
5 2 3 3 4 4 2 3 5 6 7 7 15 18 11 9 9 8 8 8 9 12 10 9 9 8 11 15 16 20 25 27 23 23 28 28 27 27 24 20 19 19 21 20 18 18 15 14 13 11 11 9 9 8 7 6 6 6 5 5 4 4 4 4 4 5 5 5 5 5 6 6 7 7 8 9 10 10 9 9 8 7 7 7 6 6 6 6 6 6 5 5 4 3 3 2 3
5 2 2 4 4 1 4 5 6 6 10 10 14 17 11 12 14 12 8 7 11 10 9 10 9 10 14 18 19 19 23 25 24 24 27 29 27 27 25 22 20 19 21 22 20 20 18 16 15 13 12 11 11 10 8 8 7 7 7 6 6 5 4 3 3 3 3 4 4 4 5 6 6 7 7 8 9 10 10 9 8 8 7 6 6 5 5 4 4 4 4 4 3 3 2 2 2
7 4 2 4 0 3 7 10 8 7 14 13 11 16 11 15 17 12 10 9 10 8 10 14 12 14 17 20 19 19 22 25 24 23 25 26 25 25 25 24 24 21 22 23 20 20 20 19 17 15 14 13 13 12 10 9 9 9 9 9 8 7 6 5 4 4 4 3 3 4 4 4 4 5 6 7 8 9 9 9 8 8 7 5 4 4 3 3 3 3 3 2 2 2 1 2 1
5 4 2 4 4 4 6 9 8 8 13 13 13 12 9 17 17 13 13 8 7 10 14 17 16 17 20 22 20 19 21 24 25 23 24 25 23 23 23 23 24 22 21 21 21 20 21 20 20 18 16 16 15 15 12 11 11 10 11 11 10 9 9 8 7 6 5 4 5 4 3 3 3 3 4 5 6 7 7 7 6 6 5 4 3 3 2 1 1 1 1 2 2 2 3 3 2
2 6 4 4 6 4 5 6 7 7 9 12 13 9 9 15 13 14 14 6 5 11 15 17 18 18 18 22 21 20 21 22 25 25 24 25 24 22 21 21 20 20 20 20 22 21 21 20 21 21 19 19 17 16 14 13 12 11 12 11 11 12 11 10 9 8 7 6 6 4 4 4 4 4 4 4 5 6 6 5 5 5 4 3 3 2 2 1 1 1 1 2 2 2 3 3 3
3 6 4 4 5 4 3 3 8 7 6 10 11 9 11 11 7 13 15 7 7 11 13 14 18 19 16 19 20 20 21 22 25 26 26 26 24 22 20 20 19 19 19 19 20 20 20 20 21 22 22 21 20 17 16 15 14 13 13 12 12 13 12 12 11 10 9 9 8 6 6 6 5 5 5 5 5 5 5 5 5 5 4 3 3 3 2 2 2 2 2 2 3 3 3 4 4
7 4 2 3 5 4 2 5 8 7 5 7 9 9 10 9 5 11 15 7 9 10 12 13 16 18 17 17 18 18 19 22 24 25 25 25 25 23 21 20 19 18 20 20 18 18 19 20 21 22 22 22 21 20 18 17 17 16 16 15 15 14 13 12 12 11 11 11 10 8 8 7 7 7 6 6 6 6 5 5 6 5 5 5 5 5 3 4 4 3 3 3 4 5 5 5 5
8 3 4 4 5 4 3 6 8 6 5 6 9 8 9 10 6 8 15 10 9 8 9 12 14 16 18 17 17 17 19 22 24 25 25 24 24 23 21 20 20 20 22 21 20 20 21 21 21 21 21 22 22 23 21 19 19 19 19 17 17 17 15 13 12 12 12 11 11 10 10 9 9 8 7 7 8 8 8 7 7 7 7 7 7 7 5 5 6 5 5 5 5 5 5 6 6
8 5 6 6 6 5 5 5 7 4 4 6 7 6 6 8 5 6 15 13 10 10 8 11 14 16 18 17 17 17 18 21 24 25 25 24 24 24 23 22 22 22 24 23 21 22 22 22 22 22 21 21 21 22 23 22 20 20 19 18 18 18 16 14 14 14 14 13 12 12 11 11 11 11 10 10 9 10 10 9 10 9 9 9 8 8 8 7 7 7 6 6 6 6 6 6 6
5 6 9 7 6 5 5 5 6 5 4 6 5 4 4 4 4 3 13 17 14 14 12 11 13 16 17 16 17 17 17 19 21 24 25 26 25 26 25 25 24 23 24 24 22 22 22 22 22 22 22 21 21 21 22 22 21 20 19 18 18 18 17 17 17 16 15 15 14 13 12 12 13 13 13 12 12 11 11 11 11 11 11 11 11 11 10 9 9 9 8 7 8 7 7 8 8
3 9 9 6 6 5 5 5 7 5 3 7 4 2 4 2 3 5 11 18 17 17 16 14 12 15 17 16 17 18 18 18 19 23 25 27 27 27 28 28 27 24 23 24 23 21 22 23 22 23 23 22 22 21 21 22 21 20 19 18 18 18 18 18 19 18 16 15 15 14 12 12 13 15 15 14 13 13 12 11 12 13 12 13 13 13 12 11 11 11 10 9 9 9 10 10 10
2 6 3 4 5 3 6 5 8 7 3 9 4 1 2 3 8 12 13 18 18 17 17 17 15 14 16 17 18 19 19 19 21 23 24 25 26 26 27 28 28 26 24 23 22 22 21 22 22 22 23 23 23 23 22 21 21 20 19 18 18 18 18 18 19 19 17 15 15 14 12 12 12 14 16 16 15 14 14 13 13 13 14 14 14 14 14 13 13 12 11 11 12 12 13 13 12
2 4 2 4 3 3 8 7 8 6 4 10 5 1 5 7 16 19 16 18 18 17 16 18 18 16 16 17 19 20 20 21 22 23 23 24 24 25 25 25 25 26 25 24 23 23 22 22 21 20 22 23 23 23 23 22 21 22 20 19 19 18 17 17 18 18 17 15 15 14 12 12 10 10 13 15 14 15 15 14 14 14 15 16 16 15 15 14 14 14 13 13 13 14 15 15 15
2 3 3 3 2 3 7 9 10 5 4 10 5 1 5 5 12 20 19 18 18 19 17 18 20 19 18 18 20 21 21 23 23 23 23 22 23 24 24 24 24 24 24 25 24 23 23 23 22 20 20 21 22 22 23 23 22 22 21 20 19 18 17 17 17 18 17 16 16 15 13 12 11 9 10 10 10 11 12 11 11 13 15 17 17 16 15 15 14 14 14 14 15 16 17 17 18
3 3 3 3 3 3 4 8 11 5 3 10 5 1 5 2 6 17 19 17 17 18 19 18 20 21 22 21 21 21 21 22 23 24 23 22 23 23 23 24 24 24 24 24 24 24 24 23 23 22 20 20 20 20 21 22 22 22 22 21 20 20 19 17 17 19 18 16 17 17 15 13 13 11 10 9 8 9 10 10 9 9 11 13 14 13 11 11 12 12 13 14 15 17 18 19 20
3 4 3 3 4 2 2 4 8 5 5 8 6 2 3 1 6 13 15 16 15 15 17 19 20 20 22 23 23 23 22 22 24 25 24 24 24 23 22 22 23 24 24 24 24 25 25 24 23 22 21 20 20 20 20 21 22 23 22 21 21 22 20 19 19 20 20 18 18 19 17 15 16 15 13 12 11 11 11 11 9 8 9 9 9 8 8 9 11 12 14 14 16 17 19 20 21
3 4 3 4 6 5 3 1 4 6 5 6 7 4 4 3 7 12 14 16 15 14 15 18 19 19 21 22 24 25 25 25 26 26 26 26 25 24 23 22 23 23 23 24 24 24 25 25 24 22 22 21 21 21 20 20 21 23 22 20 22 23 21 20 21 22 23 23 21 20 19 19 18 16 15 14 13 14 13 12 12 11 11 11 11 10 10 11 13 15 17 16 17 19 21 22 23
4 4 3 4 7 7 5 2 5 9 5 5 7 5 8 5 7 11 15 17 16 16 16 16 17 18 19 21 22 23 25 27 28 27 26 26 26 25 24 23 23 24 24 24 24 24 25 25 25 23 23 22 22 22 21 21 21 22 22 21 23 23 22 22 23 23 23 25 24 21 22 22 18 15 15 15 15 16 16 15 15 15 15 15 15 15 14 14 16 18 20 20 19 19 22 24 26
6 7 6 5 5 5 4 1 2 6 4 5 7 7 10 9 6 9 15 18 19 18 17 17 17 17 19 21 22 22 23 25 26 26 26 27 27 26 25 25 24 24 25 25 25 25 25 26 26 24 24 23 23 24 24 24 23 23 23 24 25 25 24 24 24 24 23 25 24 22 24 24 18 17 17 18 18 17 17 18 19 20 19 18 19 20 18 17 18 19 21 22 22 22 23 25 27
3 5 8 7 4 2 3 2 1 1 2 5 7 7 8 9 7 9 16 18 16 17 18 19 19 19 20 21 21 22 23 23 23 24 26 27 27 26 26 26 26 26 26 26 26 27 26 26 26 25 24 24 24 26 26 26 25 25 25 26 27 26 26 25 24 24 24 24 24 23 25 24 20 19 20 20 21 20 19 21 22 22 21 21 21 21 20 20 19 19 21 22 23 24 24 25 26
6 0 4 6 5 2 2 2 1 0 1 4 7 8 9 8 8 9 15 14 14 19 19 20 22 21 22 22 22 22 22 22 22 23 25 26 28 28 27 28 28 28 29 28 28 28 27 26 27 26 25 25 25 26 26 26 26 25 25 25 26 27 27 26 25 24 23 23 24 25 26 24 21 21 22 22 24 23 22 23 23 22 21 21 21 21 22 22 21 20 20 21 22 23 24 25 26
4 3 0 4 3 3 2 2 1 1 1 2 2 4 8 8 8 8 12 14 16 23 24 23 25 24 24 25 24 23 22 23 24 24 26 27 28 28 29 30 29 30 29 29 29 29 29 28 28 28 27 27 27 26 26 26 26 25 24 24 24 25 25 26 25 25 23 22 22 23 24 24 22 22 24 24 24 24 24 25 25 23 22 22 23 23 24 24 22 21 21 21 22 24 26 26 27
2 2 1 1 1 3 1 0 1 1 1 1 5 4 6 6 7 7 12 18 19 22 25 26 26 26 27 26 24 24 24 24 25 25 27 28 28 28 30 31 31 31 31 31 32 31 31 31 30 30 30 29 28 28 28 27 26 26 25 25 24 23 22 24 26 26 26 24 22 22 22 23 24 25 26 26 25 25 25 26 26 25 24 24 24 24 26 27 25 23 23 23 24 26 27 28 28
4 3 2 2 1 3 3 2 3 2 2 1 3 5 5 5 7 7 11 19 19 20 24 24 26 28 27 25 24 24 24 24 25 26 28 29 28 28 29 31 32 33 33 33 34 33 33 33 31 31 31 30 29 29 29 28 28 28 28 28 27 26 25 25 27 28 28 26 24 23 22 23 24 26 27 26 25 24 25 25 26 27 27 26 25 24 26 28 27 25 25 25 25 26 28 29 31
4 5 6 3 1 4 6 4 3 2 2 2 2 1 5 5 9 9 9 12 14 18 20 22 27 29 27 27 26 26 24 24 25 25 27 28 28 28 28 31 33 34 35 34 34 34 33 33 32 32 32 32 32 31 30 30 31 31 31 31 31 30 28 27 28 28 28 26 25 25 24 23 24 25 26 25 25 25 24 24 26 28 28 28 27 27 27 27 27 27 26 26 26 27 28 30 32
3 3 5 5 4 6 7 5 3 2 3 2 2 3 5 3 5 8 8 10 11 13 13 18 25 27 27 30 31 30 27 26 25 25 25 27 27 28 29 31 33 34 35 34 34 34 34 34 34 35 35 35 34 33 32 32 33 33 33 32 31 31 30 28 27 26 26 26 26 26 26 24 23 22 23 23 24 26 25 24 25 26 27 27 28 28 28 27 27 27 25 25 26 27 28 30 30
3 2 3 4 7 7 7 6 3 2 1 2 1 3 3 5 5 5 1 6 7 7 8 12 19 23 27 32 33 33 32 31 30 28 27 27 28 28 29 30 31 32 32 33 34 35 35 36 36 36 36 36 35 35 34 34 34 33 33 32 31 31 30 28 27 26 26 26 27 27 27 25 23 22 22 22 24 25 25 25 25 26 26 27 27 27 27 26 26 25 25 26 26 27 28 28 28
3 1 3 2 3 5 6 6 3 1 3 2 3 2 1 5 5 3 0 3 5 6 8 10 17 24 27 30 32 32 33 33 33 33 31 30 29 29 28 27 28 29 30 32 33 33 34 35 35 36 36 36 36 36 36 35 34 33 32 31 31 30 29 29 28 27 26 26 27 27 27 26 25 23 23 23 24 24 25 25 26 26 26 27 26 26 25 24 24 24 25 26 26 27 27 28 28
3 2 5 6 4 3 4 3 3 2 2 4 5 4 3 5 5 4 2 4 6 7 8 9 17 27 28 28 28 28 29 30 31 32 32 31 31 30 29 28 28 29 30 30 31 32 33 33 34 35 36 36 37 37 37 36 35 34 32 31 30 29 29 29 29 27 26 27 27 28 27 26 26 25 24 24 24 24 25 26 27 27 27 27 26 25 24 23 23 24 25 25 26 26 27 28 30
4 3 5 5 4 5 3 1 2 1 2 4 6 6 6 4 5 5 3 4 6 6 6 5 9 18 23 23 23 22 23 25 27 29 30 31 31 32 31 31 31 30 31 31 32 33 33 34 36 37 37 38 38 38 38 37 36 35 32 31 29 28 28 29 28 27 26 27 27 27 27 26 26 26 26 25 24 24 26 26 27 27 27 27 27 26 25 24 24 24 25 26 26 27 28 29 30
3 3 4 4 2 4 3 2 2 1 4 2 3 1 4 4 4 4 3 1 4 4 3 1 3 8 13 15 17 18 20 21 25 27 28 30 31 32 32 31 31 32 32 33 33 34 35 36 37 37 38 39 39 39 39 38 38 35 33 31 29 28 28 28 27 26 25 26 26 25 26 26 25 25 25 26 26 25 25 26 26 26 27 27 27 26 25 25 25 25 25 26 26 27 28 29 29
2 3 6 4 1 2 1 1 2 3 4 2 2 3 2 6 5 7 10 7 3 3 3 2 4 7 8 10 12 15 16 18 20 23 25 27 29 30 31 31 31 31 31 32 32 34 34 34 33 33 34 36 38 40 40 40 38 35 32 31 30 28 28 27 26 25 24 25 24 24 24 24 24 23 24 25 26 25 24 24 25 25 26 26 27 26 26 26 25 25 25 25 26 27 28 28 29
4 4 5 4 3 2 2 3 2 4 3 3 3 1 2 4 4 9 13 15 12 6 6 6 7 8 8 8 10 11 13 14 16 17 20 22 25 27 28 28 29 29 29 29 30 31 31 30 29 28 28 30 32 35 37 39 37 33 31 31 29 28 27 26 25 24 23 24 24 24 24 23 23 23 23 23 23 23 23 23 23 24 26 27 27 27 27 26 25 25 25 25 25 26 27 27 28
5 5 5 4 4 2 3 3 2 4 2 3 3 1 3 3 3 7 11 13 11 5 6 7 8 10 9 9 9 10 11 12 13 15 16 18 20 23 24 25 26 26 27 27 28 28 28 28 27 25 24 24 26 27 29 32 32 31 30 30 28 27 26 25 23 23 23 23 23 23 23 22 22 22 21 22 22 23 23 24 24 25 25 27 27 27 26 25 24 24 24 25 25 26 26 27 27
2 3 4 2 4 2 2 2 2 3 0 2 2 2 4 5 5 9 8 8 7 6 8 9 10 12 12 11 11 11 11 11 12 13 14 16 18 20 21 22 23 24 25 26 26 26 26 25 23 22 21 21 22 22 22 23 25 27 27 27 26 25 24 23 22 22 22 22 21 21 21 20 19 20 20 21 22 23 24 25 25 25 26 27 28 28 27 25 25 25 25 26 26 27 27 27 27
1 3 3 3 3 5 3 1 1 2 2 3 3 2 5 3 6 10 8 7 7 7 8 10 13 14 14 14 13 12 12 12 11 11 12 15 16 16 17 18 19 19 20 21 20 20 19 19 18 18 19 19 18 18 17 18 20 22 23 23 23 23 22 22 21 21 20 19 18 18 18 17 17 18 19 21 22 22 23 23 24 25 27 28 28 28 27 26 26 26 26 27 28 29 28 27 27
4 3 4 3 2 3 2 1 1 1 4 3 4 4 4 2 4 6 5 7 8 7 7 8 10 11 13 15 14 13 12 12 12 11 11 13 13 13 13 14 14 14 14 14 14 14 15 15 16 16 16 16 15 15 15 16 17 19 20 20 21 20 20 20 19 18 18 17 17 16 16 16 17 18 19 20 21 21 23 23 24 25 26 27 27 27 27 27 27 27 28 29 29 29 28 27 27
3 3 2 3 2 1 1 2 1 2 4 4 3 6 4 4 4 4 2 7 9 7 6 6 7 10 14 15 15 14 13 13 12 12 12 12 11 11 12 12 13 12 12 12 13 13 14 15 16 16 15 14 13 14 14 15 16 17 17 18 18 19 18 18 17 16 16 16 16 16 16 16 16 18 19 20 21 22 23 23 24 25 26 26 26 26 27 27 28 28 29 30 29 29 28 27 26
1 2 2 2 2 4 3 2 2 2 3 4 4 3 3 5 6 5 7 8 6 5 6 5 5 8 10 11 12 14 15 14 12 13 13 12 12 11 11 11 11 11 12 12 13 14 15 16 16 16 15 14 14 15 15 16 16 16 16 17 17 17 16 16 16 15 15 15 15 15 15 16 17 18 19 19 21 22 23 24 24 25 26 26 26 26 27 28 28 29 29 29 29 28 27 26 24
2 2 2 1 2 3 1 2 2 2 2 4 3 2 5 5 4 6 8 5 2 4 5 3 2 2 4 6 8 11 14 14 12 13 14 13 12 12 11 11 11 11 12 13 14 15 15 16 16 16 16 15 16 16 16 16 16 16 16 16 16 16 15 15 15 14 14 13 14 14 15 15 16 18 19 20 21 22 23 24 24 25 25 25 25 25 26 27 28 28 28 27 26 26 25 23 22
5 4 6 6 4 4 2 3 3 3 2 3 3 4 6 5 2 2 2 1 2 3 4 2 2 3 4 6 6 10 12 13 14 15 15 14 13 12 11 11 11 12 13 14 15 15 15 16 16 16 16 16 16 16 16 16 16 16 16 16 15 15 15 15 14 13 13 13 14 14 14 15 16 18 19 20 21 21 22 23 23 23 22 22 23 23 24 26 27 27 27 25 24 23 22 21 20
Wind_Direction
211 193 169 163 172 301 287 250 274 237 226 263 213 132 86 84 103 104 112 130 99 76 71 79 77 63 44 79 100 81 50 47 64 78 125 134 125 130 167 176 167 157 136 123 112 98 88 82 85 85 81 80 82 88 98 103 104 104 101 96 93 85 74 65 57 57 59 72 81 78 81 83 87 84 75 71 70 72 68 64 63 63 70 74 74 75 76 77 78 79 81 83 85 86 87 87 86
207 193 166 155 195 267 281 206 239 263 213 241 112 92 115 116 119 119 138 130 100 109 102 87 73 69 79 91 90 71 53 63 90 102 120 129 129 148 165 161 158 147 133 127 113 100 93 86 88 88 85 84 83 85 91 98 106 110 105 103 99 90 77 68 59 58 65 71 76 82 86 86 89 88 84 82 81 86 87 80 67 63 72 77 77 77 77 76 76 76 79 81 82 83 84 85 86
201 196 160 106 290 251 278 223 231 275 241 217 85 99 133 134 128 114 98 95 105 117 109 99 89 62 80 102 66 68 78 81 98 110 124 133 138 147 146 146 147 138 136 130 113 104 98 91 91 90 88 83 84 84 86 89 101 112 109 108 104 95 85 74 65 62 70 68 69 81 87 88 93 96 96 97 99 100 95 83 71 66 68 73 77 79 79 78 78 78 80 81 82 82 83 84 85
198 198 156 144 276 245 258 229 215 258 277 218 106 153 149 117 106 93 89 99 116 122 119 123 104 41 36 76 74 85 99 96 113 121 129 143 145 139 139 148 143 135 137 130 118 111 103 97 94 92 91 87 87 86 86 87 92 109 113 110 107 102 94 82 71 70 72 67 66 78 89 92 95 100 101 102 104 99 91 85 82 77 70 72 78 79 79 79 79 80 81 82 82 82 83 85 87
199 197 160 159 255 261 270 250 242 239 286 298 121 169 136 107 101 99 101 107 126 130 138 148 113 79 52 48 62 86 101 111 126 126 133 153 148 136 141 151 144 136 136 137 125 115 113 104 98 95 93 90 88 88 88 88 90 104 116 111 108 106 100 89 76 77 73 65 66 73 89 95 94 98 96 95 97 93 90 91 92 92 88 82 81 80 78 78 79 81 82 82 82 82 83 85 88
189 198 184 190 258 294 306 258 252 222 303 341 118 142 117 111 112 110 108 109 126 140 153 155 115 126 83 60 80 98 111 124 129 135 145 152 148 138 140 147 140 134 139 151 133 123 123 110 103 98 94 92 88 89 88 87 88 101 117 112 107 108 104 93 76 78 76 71 70 70 81 89 92 97 92 88 90 89 87 90 94 97 97 89 82 80 78 77 79 81 81 82 82 82 83 84 86
169 180 209 230 256 261 268 255 261 207 319 351 98 125 107 111 119 115 114 111 110 150 162 155 136 126 107 107 98 98 109 131 140 150 152 148 150 140 136 144 138 136 150 161 139 135 129 116 109 101 98 94 90 88 88 88 89 100 115 110 106 111 109 101 86 78 80 78 74 71 77 84 93 99 94 89 88 90 87 87 91 94 93 88 85 84 84 83 81 81 81 81 82 82 82 82 84
172 183 210 214 234 211 250 263 275 119 339 2 50 97 111 122 126 122 136 141 144 171 170 160 161 142 110 121 104 106 113 145 161 160 153 150 151 138 136 147 141 144 162 164 144 143 136 125 114 106 103 98 95 90 88 90 91 98 112 112 105 108 112 110 100 85 82 80 78 77 78 83 92 98 97 96 94 94 92 89 89 89 89 87 86 87 87 86 82 81 81 81 83 82 83 83 82
184 210 219 209 232 196 241 263 256 121 108 78 57 95 117 134 134 133 154 147 153 167 169 174 190 167 116 104 104 131 124 153 170 159 158 157 152 140 139 150 146 153 168 164 151 150 143 134 123 112 109 104 101 96 93 92 94 98 106 114 110 106 111 112 106 92 81 78 80 82 81 83 89 96 99 101 100 97 96 95 92 89 89 89 88 87 86 85 83 82 82 83 84 85 86 85 83
207 222 240 226 247 204 210 259 246 115 97 92 89 110 124 144 142 146 156 134 148 154 156 165 184 140 121 104 112 146 140 156 175 164 164 162 156 143 140 156 155 160 171 165 158 156 150 142 132 121 115 111 107 103 99 95 96 98 100 109 111 108 110 111 106 92 82 80 80 83 83 83 86 91 96 101 103 102 101 98 93 89 89 91 90 89 88 87 86 84 83 84 85 87 88 87 87
224 219 236 229 246 233 208 231 201 119 107 98 100 122 134 155 150 151 151 133 146 134 141 154 168 151 120 109 118 150 158 161 178 169 167 166 158 144 142 161 162 165 174 166 163 160 158 150 140 131 123 118 113 110 105 101 97 96 97 99 102 104 105 108 104 92 85 82 81 83 83 84 87 90 96 101 103 104 103 96 90 88 87 89 93 94 92 89 87 85 84 84 85 86 87 87 87
232 209 205 216 230 231 228 228 166 116 123 126 123 144 150 164 161 156 145 138 146 129 155 164 154 173 126 110 131 150 165 164 178 173 168 167 156 145 149 165 164 171 176 166 163 164 166 159 149 141 130 125 118 115 110 106 100 95 95 93 94 95 96 97 95 91 85 84 82 83 84 85 89 93 98 101 103 103 102 96 89 88 88 90 94 97 95 91 88 87 87 86 86 87 86 85 85
235 218 182 221 245 238 262 273 121 109 136 158 150 164 162 169 175 161 142 141 152 141 176 174 152 179 113 106 140 155 162 161 177 178 168 165 157 149 156 167 166 175 175 168 166 166 171 164 157 150 140 135 126 121 116 111 106 99 95 92 94 91 90 88 85 85 82 82 82 82 85 87 93 98 102 104 106 107 106 100 94 92 90 92 95 97 97 94 92 91 90 89 88 88 88 87 87
241 285 242 214 258 260 266 1 115 129 176 153 143 160 162 171 179 156 147 149 155 145 160 170 167 167 113 118 148 161 160 161 177 181 168 165 159 151 160 170 170 179 173 169 172 168 174 169 163 158 150 144 136 131 123 117 111 104 98 94 95 93 90 86 83 82 80 80 81 83 86 89 96 104 108 108 111 113 111 107 102 98 95 96 100 100 100 98 96 95 93 93 91 90 91 91 93
251 308 299 220 255 258 265 281 153 162 162 130 142 155 152 165 175 140 138 143 123 140 152 168 173 149 129 146 171 170 163 165 176 180 169 165 162 153 166 178 172 182 174 167 177 174 177 176 168 165 160 155 148 143 135 128 120 110 104 100 97 95 94 89 87 85 82 81 80 83 86 92 100 109 115 115 117 117 116 113 108 104 101 99 100 101 101 102 101 99 96 94 93 90 90 90 93
249 296 305 249 250 236 241 237 159 165 145 132 150 154 142 139 161 119 91 117 127 142 151 167 162 118 88 115 167 171 164 167 175 179 168 161 163 157 171 185 174 182 176 168 181 180 183 185 176 172 169 169 166 159 154 147 137 127 114 108 103 100 100 96 94 89 87 86 84 86 89 97 105 113 120 121 123 122 121 119 113 109 106 103 101 102 102 102 102 98 97 96 96 92 88 88 90
238 271 270 242 241 205 185 198 157 139 135 138 159 159 143 137 158 126 100 116 139 143 127 138 158 137 107 118 159 168 165 169 175 175 166 163 167 167 175 183 176 183 180 175 183 181 187 194 185 180 179 181 183 179 174 172 166 158 142 127 117 111 111 105 105 99 98 98 91 94 97 103 111 120 125 128 130 128 128 126 123 117 109 105 100 99 97 97 94 91 94 97 100 94 89 87 89
221 233 222 219 239 216 208 191 136 127 138 148 168 167 149 151 165 147 128 118 137 145 134 147 166 149 124 132 156 168 170 172 177 175 169 170 174 175 178 178 179 186 184 182 186 183 187 195 190 187 189 190 194 195 187 184 189 182 176 164 149 137 131 123 123 116 114 115 107 112 111 109 116 125 129 131 134 133 135 134 133 129 122 117 109 104 97 95 89 86 86 88 89 83 81 75 82
211 231 221 225 236 204 16 53 85 99 149 158 168 174 160 158 167 156 158 143 142 151 152 163 164 148 139 146 163 174 175 175 178 178 175 178 181 182 181 178 180 188 190 188 190 188 186 192 190 190 196 195 200 205 200 194 200 201 198 190 181 177 165 157 151 142 139 132 132 140 123 113 117 125 134 139 142 144 145 145 146 146 145 142 135 126 114 105 95 85 78 79 76 68 55 32 47
217 232 236 241 270 70 39 59 68 79 141 155 162 182 175 158 165 166 173 160 160 180 169 168 170 165 157 158 173 182 180 181 181 181 181 182 184 188 187 185 185 189 195 191 192 191 189 193 187 188 200 201 204 208 210 209 212 216 213 206 200 198 194 187 182 181 174 168 179 164 135 123 125 133 144 150 151 153 155 157 159 161 163 162 156 142 129 113 100 83 70 64 48 38 358 7 3
205 205 226 298 350 45 45 65 81 90 133 154 158 179 177 155 165 175 177 167 178 204 191 183 184 185 174 166 178 187 185 186 183 183 184 183 185 191 192 194 193 191 194 193 194 193 194 198 188 188 198 202 206 208 212 217 221 228 222 212 208 207 208 205 200 200 193 202 214 186 160 159 160 164 161 163 161 161 168 171 171 174 179 178 171 154 148 140 108 81 53 34 15 349 329 359 353
222 230 231 359 3 38 45 63 97 100 129 149 153 172 163 149 162 177 185 193 178 196 203 198 193 198 191 178 183 189 189 189 186 185 186 186 188 190 191 196 198 193 196 197 196 196 198 201 194 193 196 201 207 208 213 217 220 229 229 220 213 213 213 214 214 210 203 210 221 206 199 204 198 206 205 203 187 174 179 189 192 186 191 204 203 184 182 228 264 291 357 358 337 321 326 347 342
230 245 219 47 36 62 53 87 106 100 123 142 155 167 152 144 158 184 201 210 154 172 190 191 191 201 202 189 191 195 194 194 191 190 190 190 189 190 190 196 201 197 200 204 200 198 200 202 199 198 199 202 204 205 213 217 217 221 228 229 222 220 216 217 223 220 212 213 221 216 218 227 221 221 228 234 227 205 201 212 218 205 204 223 238 227 212 238 265 280 300 308 304 318 334 335 331
221 245 167 89 74 95 115 137 121 105 109 137 163 161 152 162 172 194 209 195 144 154 165 170 181 192 194 191 197 202 202 200 197 195 193 194 193 192 192 196 200 199 204 209 205 201 202 203 203 204 202 203 202 203 210 215 218 221 227 232 230 229 223 220 226 228 223 218 221 220 223 233 235 235 236 244 250 244 238 238 243 243 237 242 253 259 255 256 265 270 275 289 308 329 331 323 322
227 235 140 133 99 120 135 145 141 119 115 134 162 164 157 178 184 196 204 190 162 164 156 161 168 180 188 192 197 200 203 203 200 197 195 196 196 194 194 197 198 200 206 211 206 202 206 206 206 208 205 204 205 204 210 214 219 226 230 232 233 235 231 225 225 228 231 228 226 226 229 234 239 243 243 245 250 253 253 250 252 254 254 255 260 266 267 266 271 275 282 297 309 317 315 315 317
231 209 142 138 116 133 124 130 149 137 149 137 152 165 145 173 185 200 206 201 192 192 178 167 163 172 185 193 197 200 203 203 203 201 198 196 197 197 198 199 200 203 209 213 210 203 208 212 210 210 207 206 208 207 212 216 220 226 231 231 232 236 234 232 230 229 233 236 234 232 236 240 242 244 245 247 247 252 255 255 257 257 258 261 263 265 264 265 269 274 280 288 293 296 302 307 311
261 163 122 124 121 133 128 124 148 146 162 165 181 171 114 157 183 220 211 202 203 200 188 178 173 178 187 196 201 204 207 208 207 205 201 197 198 200 200 202 202 206 212 216 217 207 208 217 215 212 211 208 207 209 214 217 221 225 229 230 233 236 236 236 236 236 235 237 240 236 237 242 248 250 247 247 247 250 253 257 261 262 264 263 263 265 265 266 267 271 275 277 283 286 292 295 299
327 131 111 119 129 121 138 132 150 156 156 179 205 143 102 118 195 232 199 189 200 201 192 189 186 185 189 199 206 209 212 213 211 208 207 204 203 204 203 206 204 204 212 218 222 216 210 219 219 214 215 212 208 210 214 218 220 224 228 230 233 236 236 237 237 239 239 239 242 239 236 237 247 255 254 252 250 251 252 253 259 262 265 263 263 265 265 267 266 270 273 275 278 277 281 284 288
299 154 133 142 149 144 170 160 166 180 163 170 174 355 184 176 214 222 190 179 191 197 198 198 193 190 190 196 202 207 212 213 213 213 214 212 211 211 210 215 212 207 211 215 221 222 218 221 223 219 217 217 214 211 214 218 219 224 228 228 233 236 236 238 237 238 240 242 244 240 235 231 240 255 259 257 253 253 253 253 256 260 263 263 262 264 265 267 267 270 271 274 277 277 279 281 283
243 235 233 154 170 203 182 166 168 177 157 169 162 303 229 216 216 212 192 187 187 186 197 201 198 195 194 196 198 205 208 209 216 218 218 216 216 217 216 220 221 217 215 214 218 223 225 224 224 223 220 221 222 216 216 219 220 225 231 230 233 238 238 240 240 238 236 234 237 237 234 233 240 254 259 259 255 255 258 258 261 262 264 264 263 266 267 266 266 268 269 270 275 276 279 281 281
213 240 251 185 183 184 175 160 161 162 163 179 160 278 250 248 204 193 188 193 189 187 193 198 200 197 197 201 203 209 210 210 219 221 221 222 220 221 219 219 224 225 220 218 219 223 228 230 227 226 224 225 227 223 220 221 222 225 232 234 235 239 239 239 238 239 236 229 229 230 229 237 245 253 257 256 251 254 259 263 267 266 262 262 265 269 270 266 264 266 266 266 271 274 276 278 279
211 209 223 215 201 158 161 170 176 168 160 185 171 245 255 348 142 169 181 187 187 191 193 195 200 199 199 204 209 215 217 219 222 223 224 225 224 225 224 222 224 227 226 224 223 223 228 233 233 231 227 227 232 231 226 225 224 225 231 235 238 240 240 238 236 239 239 233 234 233 229 237 245 245 247 248 247 254 264 269 270 268 264 262 266 269 267 262 263 267 269 269 273 276 278 279 280
217 209 185 197 208 169 156 204 205 161 127 192 216 265 244 69 135 163 175 182 187 194 196 196 200 202 202 206 212 215 218 223 225 225 227 226 226 229 229 226 226 229 231 230 227 226 229 234 237 236 233 231 234 236 234 230 226 225 230 233 238 241 240 239 238 241 243 239 242 245 241 242 245 242 241 245 251 257 268 272 264 264 269 268 263 258 259 265 272 276 274 274 278 281 282 282 283
217 209 203 203 193 175 159 221 217 164 138 198 217 252 255 192 161 175 186 188 193 204 205 200 199 202 206 209 215 217 218 222 225 226 227 228 228 230 231 230 229 231 232 232 232 231 231 235 239 240 239 236 236 238 239 236 228 226 228 227 234 243 241 238 238 241 245 244 243 246 250 251 245 239 237 244 256 261 262 262 260 265 270 273 267 258 259 266 273 276 275 277 280 283 286 285 285
192 188 215 222 195 186 177 176 178 174 195 210 188 226 257 233 171 184 199 193 195 208 212 209 204 201 206 211 215 219 221 223 228 228 227 229 230 230 232 231 231 232 232 231 232 232 231 234 238 239 239 238 236 239 240 238 231 226 224 221 230 242 242 238 239 240 242 244 243 241 246 249 238 226 234 247 258 262 258 254 258 265 267 269 268 263 263 266 270 274 275 275 276 281 285 284 284
196 184 199 219 202 188 164 139 157 154 189 218 192 207 239 240 206 190 200 196 196 206 212 214 213 207 208 211 213 218 222 225 231 232 229 230 230 230 231 231 232 232 233 232 231 233 232 232 236 236 236 237 235 236 237 237 235 229 225 223 228 239 243 242 242 243 241 241 244 240 240 244 229 219 235 247 254 256 254 254 258 261 263 263 264 264 268 271 273 275 275 274 273 278 282 281 281
276 190 191 208 207 186 106 78 312 101 154 222 221 225 237 240 236 205 193 192 197 204 211 214 214 214 211 209 212 216 222 228 232 234 233 232 231 230 230 230 230 231 232 232 232 233 232 233 236 236 235 236 235 234 236 238 238 236 233 232 232 236 243 247 247 249 248 246 246 242 242 243 230 225 235 243 252 253 249 254 257 260 261 262 265 267 271 274 274 278 280 276 273 276 281 281 282
319 261 174 209 212 195 72 75 245 41 87 231 227 237 246 238 245 220 182 181 202 203 201 207 211 214 215 213 215 219 225 230 229 231 234 234 232 229 228 229 228 228 229 230 231 232 233 234 237 239 237 236 237 237 238 240 242 243 242 242 241 240 243 249 252 253 254 252 249 246 245 244 236 234 237 242 253 253 247 251 257 261 262 262 266 267 271 274 272 274 277 277 275 277 280 283 284
317 339 167 226 201 131 68 51 72 110 163 277 270 243 253 246 249 235 183 184 208 206 203 206 209 212 216 218 220 222 225 228 226 227 231 234 234 230 228 229 228 228 229 230 232 233 234 234 236 239 240 239 240 241 242 244 246 247 247 246 245 243 243 246 251 254 254 252 251 250 248 246 240 239 241 243 248 247 246 251 255 257 258 260 264 266 269 271 270 268 270 274 276 278 280 281 282
277 307 315 275 110 103 15 318 103 6 186 27 355 304 270 265 266 260 217 212 214 210 211 213 214 217 219 219 222 225 225 225 225 226 230 233 234 233 230 229 228 228 229 229 230 232 233 234 235 238 240 241 242 243 245 246 247 247 247 247 245 244 241 240 244 252 255 255 255 255 252 248 242 239 242 245 243 242 246 250 252 254 256 259 262 263 264 267 270 270 269 271 272 274 277 279 281
235 235 245 289 15 100 84 136 149 18 9 139 359 318 284 244 237 252 233 226 223 213 212 213 217 223 224 221 222 226 228 227 226 227 230 232 233 233 232 230 230 229 229 230 231 232 234 235 236 238 241 244 245 245 246 245 244 242 242 243 243 242 238 234 238 248 257 261 261 260 257 250 244 242 244 246 245 244 246 247 250 255 257 258 259 259 259 262 268 269 268 270 271 271 275 277 280
238 211 205 228 358 98 110 131 144 51 309 228 117 302 281 231 214 230 221 218 223 214 209 212 217 221 222 220 221 223 225 227 229 231 232 233 234 234 233 232 231 230 230 231 233 234 236 237 238 239 242 245 247 246 244 243 242 241 240 242 244 245 244 243 245 251 258 263 265 264 261 255 249 247 248 249 250 251 251 248 249 254 257 259 260 260 260 261 266 266 266 269 269 271 273 275 278
234 229 218 191 118 108 133 146 138 145 251 282 108 177 269 285 239 250 221 201 213 210 209 215 215 216 217 220 221 220 219 220 224 228 231 234 236 234 234 233 232 232 232 232 234 235 237 238 239 241 244 246 247 246 244 243 242 241 242 244 247 250 252 254 255 255 255 259 262 262 261 258 254 252 252 252 251 254 256 254 253 257 261 264 265 265 264 263 265 267 270 272 273 273 272 273 277
218 292 296 180 139 135 151 148 161 197 165 348 4 162 277 296 269 284 228 181 206 208 211 223 220 218 219 223 224 222 222 223 223 225 227 231 235 235 234 234 234 234 234 233 234 236 237 239 241 244 245 246 246 246 244 243 243 244 244 244 247 250 254 257 256 254 253 254 257 258 260 260 257 254 253 252 252 254 257 258 258 260 263 266 267 267 266 264 265 270 275 277 278 277 276 277 281
228 293 22 76 130 146 149 147 181 153 63 318 270 161 256 277 253 268 1 181 226 225 214 222 225 224 225 228 229 230 230 230 230 230 230 232 235 238 238 236 235 235 234 234 235 237 238 240 242 244 245 246 245 245 244 243 244 244 245 245 247 249 253 255 254 253 252 253 254 257 258 260 260 257 253 252 254 255 257 259 260 261 261 264 266 267 267 267 269 273 275 277 278 280 282 283 284
204 165 66 56 50 71 107 147 174 111 78 242 232 179 200 278 260 232 234 221 229 231 219 218 219 222 225 228 230 232 232 231 232 232 233 233 234 237 239 239 238 237 236 236 235 236 239 240 242 244 245 246 245 245 244 243 243 242 243 245 247 249 251 252 252 251 251 251 253 256 257 258 259 260 259 257 256 256 257 259 260 263 264 266 267 267 268 270 272 273 274 276 278 281 283 283 284
150 139 78 62 50 47 44 51 95 108 249 238 226 193 185 267 266 202 198 216 210 223 236 231 215 214 216 219 221 223 225 226 226 227 229 230 231 233 236 238 240 240 240 239 239 240 241 243 244 245 245 246 246 246 245 244 243 242 241 243 245 248 250 250 250 249 250 251 253 255 258 258 258 260 263 264 262 260 260 260 261 263 265 266 267 268 269 270 271 272 274 276 278 279 280 281 283
105 130 115 80 34 44 31 8 76 203 242 252 295 254 183 231 255 222 250 254 153 177 219 199 151 179 191 198 204 211 217 222 223 225 227 228 231 233 235 237 239 241 241 242 244 245 246 246 246 245 245 245 246 245 245 244 243 241 239 240 244 247 248 248 247 248 251 254 256 257 258 260 259 258 261 263 264 264 264 265 266 265 265 265 266 267 268 268 268 270 272 274 276 278 278 279 282
99 143 135 121 108 73 58 237 175 227 246 248 305 353 225 232 250 265 281 290 254 192 184 181 159 163 181 196 206 213 220 227 228 228 229 230 233 235 238 240 241 242 242 243 244 244 246 245 245 246 246 246 246 246 244 243 242 239 236 239 244 247 247 246 245 247 251 256 259 260 261 262 262 260 258 259 262 264 264 265 265 264 263 262 263 263 263 264 265 267 270 273 275 277 278 279 282
153 164 144 145 159 134 197 203 199 234 263 273 257 253 260 268 254 242 251 263 265 236 188 191 175 174 191 207 219 227 229 233 236 235 233 233 235 237 239 241 242 244 243 242 241 241 241 241 242 244 245 246 247 247 246 244 242 239 236 240 244 245 245 245 245 247 251 256 260 263 264 265 264 263 261 261 263 266 266 265 262 261 260 259 260 260 260 262 264 267 271 274 277 278 279 280 283
179 177 138 155 182 171 188 182 197 220 252 317 291 223 196 211 248 239 238 251 260 231 199 206 195 193 198 209 228 240 243 243 242 241 240 238 238 238 240 240 242 243 242 241 239 237 238 238 240 243 244 245 247 247 247 244 241 238 237 238 240 241 242 243 246 249 252 255 258 261 263 265 266 266 266 266 267 268 268 267 266 264 263 263 264 264 265 267 270 274 277 278 280 281 282 285 290
205 157 115 168 206 153 143 184 183 171 49 307 259 253 221 212 275 282 266 253 243 223 221 222 218 217 216 224 236 242 248 252 251 248 242 238 238 237 238 239 239 240 241 240 239 238 239 239 239 239 240 243 244 244 243 240 237 235 233 233 234 236 239 242 246 250 254 256 257 260 262 265 266 265 264 263 264 265 266 267 268 268 268 268 269 270 273 276 278 279 281 283 285 286 289 294 298
168 133 152 192 166 112 115 267 8 105 286 260 182 252 279 274 290 278 251 241 242 226 218 222 227 227 224 227 232 234 241 252 258 252 237 232 232 231 232 234 235 237 237 238 238 236 235 233 232 232 234 235 235 236 234 230 227 227 227 228 230 234 238 242 247 250 253 256 257 259 262 264 265 264 264 264 266 268 269 269 269 268 269 271 274 277 279 280 281 281 283 285 288 291 294 298 300
115 152 186 167 95 76 115 249 340 108 255 254 164 210 257 232 268 279 231 225 249 240 214 220 225 223 225 230 231 231 237 248 254 246 230 227 226 225 228 228 229 231 231 231 229 225 222 221 222 225 227 228 227 226 224 221 220 221 223 226 228 232 236 240 244 246 249 252 255 258 260 264 267 268 269 270 272 273 273 273 272 271 272 273 276 277 278 279 280 281 283 285 290 294 298 301 300
111 173 165 122 142 206 152 192 237 229 249 272 227 218 229 197 221 307 264 224 245 242 204 197 213 219 228 236 237 231 230 236 240 234 227 226 225 226 228 228 228 227 224 222 218 217 217 216 216 219 221 221 220 219 218 217 218 219 220 222 224 228 232 236 240 243 245 248 252 256 260 265 268 269 271 273 273 274 274 276 276 275 274 275 276 277 278 279 279 281 284 288 294 299 300 301 301
47 47 42 67 147 176 175 194 216 223 242 272 267 230 245 227 211 238 243 228 230 217 187 187 219 228 235 249 250 236 227 229 231 227 226 225 224 227 228 228 228 224 221 219 216 217 217 215 214 215 214 211 210 211 211 212 212 211 212 214 218 223 227 232 236 239 242 247 252 257 261 265 268 270 273 274 275 276 277 277 277 276 276 277 279 280 281 282 282 284 288 293 298 301 300 301 301
155 108 127 124 98 121 161 259 208 161 205 260 272 259 265 254 214 221 235 231 180 156 155 177 238 246 246 260 259 240 230 230 230 225 225 226 224 224 224 225 223 218 217 216 214 216 215 214 212 211 209 205 204 204 203 204 204 204 206 210 214 218 222 227 232 237 243 249 255 261 264 267 269 271 273 275 277 278 277 277 277 278 279 281 282 282 282 284 286 289 292 295 298 299 299 301 302
172 172 171 169 149 118 128 252 223 165 193 228 236 262 267 268 305 311 247 131 118 136 131 163 254 274 259 251 245 238 232 231 230 225 224 226 225 224 222 221 219 214 214 213 212 213 212 210 208 207 206 202 201 201 199 199 200 201 204 207 211 216 220 226 233 241 251 258 263 268 270 271 272 274 275 277 279 280 280 280 280 281 282 283 283 285 285 286 288 289 292 295 297 298 299 302 302